Location: Riverside Cemetery
(38.3047°N, 99.7773°W)
Time: 06:59:07
(UTC+00:00)

Cosmos 807 - Pass Details

Date: 19 September 2020
Orbit: 372 x 1185 km, 82.9° (Epoch: 19 October)

Event Time Altitude Azimuth Distance (km) Brightness Sun altitude
Rises 01:24:00 0° 181° (S) 2,223 7.8 -9.1°
Reaches altitude 10° 01:25:53 10° 179° (S) 1,402 6.8 -9.5°
Maximum altitude 01:28:50 70° 95° (E) 441 4.1 -10.1°
Drops below altitude 10° 01:32:13 10° 11° (N) 1,606 7.2 -10.7°
Sets 01:34:29 0° 9° (N) 2,594 8.3 -11.2°
